"Timestamp","TZ","WindDir_Mean (deg)","WindSpd_Mean (km/h)","WindSpd_Min (km/h)","WindSpd_Max (km/h)","Temp_Mean (deg)","RH_Mean (%)","MSLP_Mean (hPa)","Rain_Acc (mm)","Rain_Intensity (mm/h)","Hail_Acc (hits/cm2)","Hail_Intensity (hits/cm2hr)","Solar_Mean (W/m2)"
2023/04/03 00:00:00.015,n,164,4.68,2.16,6.84,19.9,66.199996,1016.32,0,0,0,0,0.025215
2023/04/03 00:01:00.001,n,248,3.6,1.8,3.96,20,66.800004,1016.32,0,0,0,0,0.025215
2023/04/03 00:02:00.001,n,265,5.76,4.32,7.92,20,67.6,1016.22,0,0,0,0,0.026093
2023/04/03 00:03:00.001,n,137,1.44,0,4.68,20,66.5,1016.22,0,0,0,0,0.024376
2023/04/03 00:04:00.001,n,137,3.24,1.44,4.68,20,67.5,1016.22,0,0,0,0,0.026093
2023/04/03 00:05:00.003,n,139,3.6,0.36,5.04,20,67.3,1016.22,0,0,0,0,0.025215
2023/04/03 00:06:00.001,n,198,2.88,1.08,4.32,20,67.5,1016.22,0,0,0,0,0.027008
2023/04/03 00:07:00.012,n,256,3.6,1.08,5.04,19.9,67.5,1016.22,0,0,0,0,0.027008
2023/04/03 00:08:00.013,n,205,2.88,2.52,3.6,19.9,67.4,1016.22,0,0,0,0,0.027847
2023/04/03 00:09:00.013,n,285,3.24,2.52,4.32,19.9,68.2,1016.22,0,0,0,0,0.027847
2023/04/03 00:10:00.001,n,204,2.88,2.52,3.24,19.9,67.6,1016.22,0,0,0,0,0.025215
2023/04/03 00:11:00.004,n,160,2.16,1.44,6.12,19.9,67.2,1016.22,0,0,0,0,0.026093
2023/04/03 00:12:00.006,n,160,3.24,1.44,5.4,19.9,67.6,1016.22,0,0,0,0,0.026093
2023/04/03 00:13:00.002,n,44,3.6,1.08,5.76,19.9,67.3,1016.22,0,0,0,0,0.022621
2023/04/03 00:14:00.010,n,180,3.96,1.08,6.84,19.8,67.5,1016.22,0,0,0,0,0.022621
2023/04/03 00:15:00.001,n,144,3.96,2.16,5.4,19.8,67.8,1016.22,0,0,0,0,0.025215
2023/04/03 00:16:00.013,n,173,2.52,1.08,5.04,19.8,67.5,1016.22,0,0,0,0,0.022621
2023/04/03 00:17:00.001,n,31,2.52,1.08,3.24,19.8,67.3,1016.22,0,0,0,0,0.025215
2023/04/03 00:18:00.007,n,145,0.72,0.36,1.08,19.8,68.1,1016.22,0,0,0,0,0.020866
2023/04/03 00:19:00.001,n,145,1.8,0.72,2.16,19.8,67.8,1016.22,0,0,0,0,0.020866
2023/04/03 00:20:00.001,n,167,6.84,3.96,9.72,19.8,67.5,1016.22,0,0,0,0,0.026093
2023/04/03 00:21:00.003,n,268,6.48,3.6,7.92,19.8,67.5,1016.12,0,0,0,0,0.025215
2023/04/03 00:22:00.007,n,278,3.96,2.52,5.4,19.8,68.5,1016.12,0,0,0,0,0.025215
2023/04/03 00:23:00.010,n,354,2.16,0.72,3.6,19.8,68.3,1016.12,0,0,0,0,0.020866
2023/04/03 00:24:00.001,n,190,2.52,0.36,5.4,19.8,68.4,1016.12,0,0,0,0,0.022621
2023/04/03 00:25:00.001,n,129,2.52,1.08,6.48,19.8,68.2,1016.12,0,0,0,0,0.019989
2023/04/03 00:26:00.002,n,160,1.08,0.36,2.52,19.8,67.8,1016.12,0,0,0,0,0.024376
2023/04/03 00:27:00.007,n,126,2.52,2.16,3.6,19.8,67.8,1016.12,0,0,0,0,0.021782
2023/04/03 00:28:00.001,n,177,2.52,1.44,3.96,19.8,67.9,1016.12,0,0,0,0,0.020866
2023/04/03 00:29:00.001,n,120,3.24,0.72,5.04,19.8,69.4,1016.02,0,0,0,0,0.01915
2023/04/03 00:30:00.001,n,233,3.24,1.08,4.68,19.8,69.5,1016.02,0,0,0,0,0.022621
2023/04/03 00:31:00.001,n,152,3.24,2.16,3.96,19.8,68.1,1016.02,0,0,0,0,0.01915
2023/04/03 00:32:00.009,n,219,3.6,2.52,5.04,19.8,69.3,1016.02,0,0,0,0,0.019989
2023/04/03 00:33:00.011,n,272,6.12,5.04,6.84,19.8,70.2,1016.02,0,0,0,0,0.01915
2023/04/03 00:34:00.013,n,201,2.88,2.52,3.24,19.8,69.1,1016.02,0,0,0,0,0.01564
2023/04/03 00:35:00.013,n,259,4.68,4.32,5.04,19.7,69,1016.02,0,0,0,0,0.017395
2023/04/03 00:36:00.015,n,215,2.88,1.8,3.96,19.7,68.5,1016.02,0,0,0,0,0.024376
2023/04/03 00:37:00.001,n,307,3.6,1.8,5.04,19.7,69.7,1015.92,0,0,0,0,0.021782
2023/04/03 00:38:00.001,n,239,3.24,1.8,3.96,19.7,69.2,1016.02,0,0,0,0,0.022621
2023/04/03 00:39:00.002,n,240,2.88,1.44,4.32,19.7,68.7,1016.02,0,0,0,0,0.017395
2023/04/03 00:40:00.003,n,242,4.32,1.8,5.4,19.7,68.6,1015.92,0,0,0,0,0.020866
2023/04/03 00:41:00.004,n,203,2.52,1.8,5.04,19.7,69.5,1015.92,0,0,0,0,0.021782
2023/04/03 00:42:00.006,n,191,2.52,1.8,3.6,19.7,68.5,1016.02,0,0,0,0,0.021782
2023/04/03 00:43:00.008,n,180,2.16,1.08,3.6,19.6,68.6,1016.02,0,0,0,0,0.018272
2023/04/03 00:44:00.010,n,125,3.6,0.72,4.68,19.6,68.5,1016.02,0,0,0,0,0.014801
2023/04/03 00:45:00.012,n,181,3.6,1.8,6.12,19.6,68.4,1015.92,0,0,0,0,0.025215
2023/04/03 00:46:00.001,n,209,4.68,3.6,5.76,19.6,68.3,1015.92,0,0,0,0,0.026093
2023/04/03 00:47:00.001,n,220,7.92,6.84,9.36,19.6,68.3,1015.82,0,0,0,0,0.02697
2023/04/03 00:48:00.004,n,252,4.32,3.6,5.04,19.6,68.2,1015.82,0,0,0,0,0.029564
2023/04/03 00:49:00.001,n,325,2.52,1.08,4.68,19.6,69.1,1015.82,0,0,0,0,0.031319
2023/04/03 00:50:00.001,n,261,5.76,5.4,6.12,19.6,69.2,1015.82,0,0,0,0,0.035667
2023/04/03 00:51:00.014,n,173,3.96,2.52,4.68,19.6,68.5,1015.82,0,0,0,0,0.039139
2023/04/03 00:52:00.018,n,293,3.6,2.16,4.32,19.6,69.1,1015.82,0,0,0,0,0.040894
2023/04/03 00:53:00.021,n,112,1.44,0.36,2.88,19.6,68.7,1015.82,0,0,0,0,0.040894
2023/04/03 00:54:00.010,n,298,3.6,3.24,3.96,19.6,68.7,1015.82,0,0,0,0,0.043526
2023/04/03 00:55:00.001,n,178,2.16,0.36,5.04,19.7,69.3,1015.82,0,0,0,0,0.022621
2023/04/03 00:56:00.006,n,205,3.24,1.08,5.76,19.6,68.1,1015.82,0,0,0,0,0.033073
2023/04/03 00:57:00.010,n,346,1.44,0.72,6.84,19.6,68.8,1015.72,0,0,0,0,0.034828
2023/04/03 00:58:00.001,n,222,3.6,1.8,5.04,19.7,68.7,1015.72,0,0,0,0,0.031319
2023/04/03 00:59:00.001,n,224,2.16,1.08,4.32,19.7,69.4,1015.72,0,0,0,0,0.036545
2023/04/03 01:00:00.006,n,207,2.16,0.72,4.68,19.7,69.3,1015.72,0,0,0,0,0.041771
2023/04/03 01:01:00.001,n,134,3.24,1.8,4.32,19.7,68.7,1015.72,0,0,0,0,0.040894
2023/04/03 01:02:00.015,n,152,2.88,1.8,4.32,19.6,68.4,1015.72,0,0,0,0,0.044403
2023/04/03 01:03:00.015,n,241,4.32,2.52,5.04,19.6,68.9,1015.72,0,0,0,0,0.042648
2023/04/03 01:04:00.001,n,152,3.24,0.72,4.68,19.6,68.5,1015.72,0,0,0,0,0.045242
2023/04/03 01:05:00.001,n,243,3.96,3.6,4.32,19.6,68.2,1015.72,0,0,0,0,0.041771
2023/04/03 01:06:00.002,n,179,3.6,0.36,5.76,19.6,68.4,1015.72,0,0,0,0,0.044403
2023/04/03 01:07:00.007,n,270,1.08,0.36,2.88,19.6,68.9,1015.72,0,0,0,0,0.049591
2023/04/03 01:08:00.001,n,138,3.24,1.8,3.96,19.6,69.1,1015.72,0,0,0,0,0.048752
2023/04/03 01:09:00.001,n,65,2.52,1.44,5.04,19.6,69,1015.72,0,0,0,0,0.022621
2023/04/03 01:10:00.008,n,43,0.72,0.36,1.44,19.6,68.6,1015.72,0,0,0,0,0.031319
2023/04/03 01:11:00.008,n,177,3.24,0.36,6.12,19.6,68.5,1015.72,0,0,0,0,0.032196
2023/04/03 01:12:00.013,n,185,2.52,1.08,4.68,19.6,69.5,1015.72,0,0,0,0,0.029564
2023/04/03 01:13:00.001,n,181,3.6,2.52,7.2,19.6,68.8,1015.72,0,0,0,0,0.033913
2023/04/03 01:14:00.001,n,351,0.72,0.36,1.44,19.6,69,1015.72,0,0,0,0,0.030403
2023/04/03 01:15:00.013,n,341,1.08,0.72,1.8,19.5,68.8,1015.72,0,0,0,0,0.03479
2023/04/03 01:16:00.012,n,152,2.52,0.72,6.12,19.5,69.2,1015.72,0,0,0,0,0.03479
2023/04/03 01:17:00.003,n,133,4.32,2.52,5.4,19.5,69.2,1015.72,0,0,0,0,0.036545
2023/04/03 01:18:00.007,n,245,1.08,0.36,5.04,19.5,69.1,1015.72,0,0,0,0,0.037422
2023/04/03 01:19:00.002,n,165,6.12,2.16,6.84,19.5,69.1,1015.72,0,0,0,0,0.033913
2023/04/03 01:20:00.007,n,208,0.72,0,1.08,19.5,69.3,1015.72,0,0,0,0,0.036545
2023/04/03 01:21:00.002,n,202,2.88,1.8,3.96,19.5,69.3,1015.72,0,0,0,0,0.039139
2023/04/03 01:22:00.004,n,175,3.24,2.88,3.6,19.5,69.1,1015.62,0,0,0,0,0.037422
2023/04/03 01:23:00.001,n,273,5.76,5.4,6.12,19.5,69.3,1015.62,0,0,0,0,0.038261
2023/04/03 01:24:00.001,n,171,3.24,1.8,5.04,19.5,69.3,1015.62,0,0,0,0,0.038261
2023/04/03 01:25:00.009,n,170,4.68,3.24,5.76,19.4,69.9,1015.62,0,0,0,0,0.039139
2023/04/03 01:26:00.002,n,254,3.96,1.08,4.68,19.4,69.6,1015.62,0,0,0,0,0.038261
2023/04/03 01:27:00.002,n,256,3.96,1.8,5.04,19.4,70.6,1015.52,0,0,0,0,0.040855
2023/04/03 01:28:00.009,n,273,2.16,1.08,3.24,19.5,70.4,1015.52,0,0,0,0,0.041771
2023/04/03 01:29:00.009,n,24,2.88,1.08,4.68,19.4,70.9,1015.52,0,0,0,0,0.041771
2023/04/03 01:30:00.018,n,271,5.4,4.68,5.76,19.4,70.5,1015.52,0,0,0,0,0.041771
2023/04/03 01:31:00.005,n,261,6.12,5.04,7.2,19.4,70.5,1015.52,0,0,0,0,0.043488
2023/04/03 01:32:00.003,n,154,3.6,2.52,4.68,19.4,70.3,1015.52,0,0,0,0,0.046082
2023/04/03 01:33:00.008,n,189,2.52,0.72,5.4,19.4,70.7,1015.52,0,0,0,0,0.04261
2023/04/03 01:34:00.006,n,248,3.96,1.08,5.76,19.4,70.7,1015.52,0,0,0,0,0.044365
2023/04/03 01:35:00.009,n,168,2.88,1.8,2.88,19.4,70.8,1015.52,0,0,0,0,0.023537
2023/04/03 01:36:00.003,n,167,2.52,1.44,7.2,19.4,70.3,1015.52,0,0,0,0,0.030479
2023/04/03 01:37:00.001,n,126,2.52,2.16,3.24,19.3,70.6,1015.52,0,0,0,0,0.027885
2023/04/03 01:38:00.003,n,249,2.16,1.08,5.4,19.3,70.7,1015.52,0,0,0,0,0.030479
2023/04/03 01:39:00.028,n,205,2.52,1.44,5.4,19.3,70.6,1015.52,0,0,0,0,0.028763
2023/04/03 01:40:00.002,n,272,3.96,3.6,4.32,19.3,71.1,1015.52,0,0,0,0,0.031357
2023/04/03 01:41:00.001,n,222,2.88,1.8,3.6,19.3,71.1,1015.52,0,0,0,0,0.029602
2023/04/03 01:42:00.001,n,174,2.52,1.8,3.24,19.3,71.6,1015.52,0,0,0,0,0.030479
2023/04/03 01:43:00.006,n,137,1.44,0.72,3.96,19.3,70.9,1015.52,0,0,0,0,0.030479
2023/04/03 01:44:00.010,n,256,5.04,1.8,6.12,19.3,71,1015.52,0,0,0,0,0.029602
2023/04/03 01:45:00.009,n,278,4.68,3.6,5.4,19.3,72,1015.42,0,0,0,0,0.031357
2023/04/03 01:46:00.001,n,252,5.4,4.68,6.12,19.3,71,1015.42,0,0,0,0,0.032196
2023/04/03 01:47:00.016,n,212,2.52,1.44,3.96,19.3,72.1,1015.42,0,0,0,0,0.033112
2023/04/03 01:48:00.015,n,160,5.4,1.8,6.12,19.3,71.4,1015.42,0,0,0,0,0.029602
2023/04/03 01:49:00.001,n,212,2.52,2.52,2.88,19.3,71.4,1015.42,0,0,0,0,0.032196
2023/04/03 01:50:00.002,n,165,2.52,1.8,3.6,19.3,72.3,1015.42,0,0,0,0,0.032196
2023/04/03 01:51:00.001,n,212,2.88,2.52,3.96,19.3,71.6,1015.42,0,0,0,0,0.033951
2023/04/03 01:52:00.001,n,89,2.16,1.08,3.96,19.2,71.5,1015.42,0,0,0,0,0.035706
2023/04/03 01:53:00.001,n,266,2.16,1.44,4.32,19.2,71.4,1015.32,0,0,0,0,0.032196
2023/04/03 01:54:00.001,n,272,4.68,3.96,5.4,19.2,71.4,1015.32,0,0,0,0,0.033112
2023/04/03 01:55:00.006,n,205,3.96,2.52,5.04,19.1,71.2,1015.32,0,0,0,0,0.034828
2023/04/03 01:56:00.007,n,274,3.6,2.88,4.32,19.1,71.2,1015.32,0,0,0,0,0.033112
2023/04/03 01:57:00.014,n,166,3.24,1.8,4.32,19.1,71.3,1015.32,0,0,0,0,0.033951
2023/04/03 01:58:00.002,n,246,3.24,2.52,3.6,19.2,72.4,1015.32,0,0,0,0,0.032196
2023/04/03 01:59:00.002,n,139,3.6,2.52,4.32,19.2,71.7,1015.32,0,0,0,0,0.031357
2023/04/03 02:00:00.001,n,226,2.88,0.36,4.32,19.2,71.4,1015.22,0,0,0,0,0.031357
2023/04/03 02:01:00.005,n,297,2.52,2.16,2.88,19.2,71.9,1015.22,0,0,0,0,0.032196
2023/04/03 02:02:00.002,n,272,5.04,3.6,5.4,19.1,72,1015.22,0,0,0,0,0.030479
2023/04/03 02:03:00.004,n,283,2.52,2.16,3.24,19.1,71.7,1015.22,0,0,0,0,0.031357
2023/04/03 02:04:00.010,n,349,2.16,0.36,5.4,19.1,72.3,1015.22,0,0,0,0,0.031357
2023/04/03 02:05:00.010,n,301,4.32,2.52,5.76,19.1,72.3,1015.22,0,0,0,0,0.030479
2023/04/03 02:06:00.003,n,145,4.68,3.6,5.76,19.1,71.6,1015.22,0,0,0,0,0.033112
2023/04/03 02:07:00.001,n,172,2.52,0.72,3.6,19.1,71.4,1015.22,0,0,0,0,0.032196
2023/04/03 02:08:00.006,n,17,3.6,1.44,6.48,19.1,72.2,1015.22,0,0,0,0,0.031357
2023/04/03 02:09:00.001,n,173,2.16,0.72,6.48,19.1,71.7,1015.22,0,0,0,0,0.033112
2023/04/03 02:10:00.001,n,149,0.36,0,0.72,19.1,71.6,1015.12,0,0,0,0,0.033112
2023/04/03 02:11:00.007,n,237,2.88,2.52,3.24,19.1,71.3,1015.12,0,0,0,0,0.033112
2023/04/03 02:12:00.004,n,271,4.32,2.88,5.04,19.1,72.5,1015.12,0,0,0,0,0.031357
2023/04/03 02:13:00.006,n,174,2.88,2.16,3.6,19.1,72.9,1015.02,0,0,0,0,0.029602
2023/04/03 02:14:00.001,n,239,3.24,1.08,3.6,19.1,72.2,1015.02,0,0,0,0,0.029602
2023/04/03 02:15:00.014,n,288,6.12,5.04,6.48,19.1,72.7,1015.02,0,0,0,0,0.029602
2023/04/03 02:16:00.001,n,294,3.96,2.16,4.68,19.1,72.5,1014.92,0,0,0,0,0.029602
2023/04/03 02:17:00.010,n,164,3.24,2.52,4.32,19.1,72,1014.92,0,0,0,0,0.028763
2023/04/03 02:18:00.002,n,273,4.32,2.52,5.4,19.1,73.1,1014.92,0,0,0,0,0.029602
2023/04/03 02:19:00.005,n,308,6.48,1.44,8.64,19.1,73.6,1014.92,0,0,0,0,0.029602
2023/04/03 02:20:00.002,n,249,4.32,1.8,5.04,19.1,72.3,1014.92,0,0,0,0,0.027885
2023/04/03 02:21:00.001,n,260,5.76,5.4,6.48,19,71.8,1014.92,0,0,0,0,0.025253
2023/04/03 02:22:00.012,n,242,3.24,2.88,3.96,19,71.7,1014.92,0,0,0,0,0.029602
2023/04/03 02:23:00.006,n,249,4.68,1.44,6.12,18.9,71.8,1014.92,0,0,0,0,0.030479
2023/04/03 02:24:00.005,n,194,2.88,1.8,3.96,18.9,71.9,1014.92,0,0,0,0,0.029602
2023/04/03 02:25:00.004,n,176,2.16,0.72,5.76,18.9,71.9,1014.92,0,0,0,0,0.033112
2023/04/03 02:26:00.001,n,210,3.24,1.08,4.32,18.9,72.4,1014.92,0,0,0,0,0.032196
2023/04/03 02:27:00.001,n,179,3.24,2.16,4.32,18.9,72.6,1014.92,0,0,0,0,0.029602
2023/04/03 02:28:00.002,n,172,2.52,0.72,3.6,18.9,71.9,1014.92,0,0,0,0,0.027885
2023/04/03 02:29:00.009,n,245,3.24,1.44,3.96,18.9,71.9,1015.02,0,0,0,0,0.029602
2023/04/03 02:30:00.011,n,112,1.8,1.08,6.84,18.9,72.1,1015.02,0,0,0,0,0.031357
2023/04/03 02:31:00.014,n,164,2.52,2.16,3.24,18.9,72.1,1014.92,0,0,0,0,0.024376
2023/04/03 02:32:00.006,n,248,2.52,1.8,3.24,18.9,72.3,1015.02,0,0,0,0,0.029602
2023/04/03 02:33:00.018,n,275,5.4,3.96,7.2,18.9,72.1,1015.02,0,0,0,0,0.02697
2023/04/03 02:34:00.003,n,114,2.16,0,5.76,18.9,72.4,1015.02,0,0,0,0,0.026131
2023/04/03 02:35:00.001,n,157,3.96,1.8,5.76,18.9,72.3,1015.02,0,0,0,0,0.02697
2023/04/03 02:36:00.009,n,302,3.6,1.8,5.4,18.9,72.8,1015.02,0,0,0,0,0.02697
2023/04/03 02:37:00.004,n,336,1.8,1.08,2.88,18.9,72.9,1014.92,0,0,0,0,0.02697
2023/04/03 02:38:00.002,n,169,5.4,3.6,7.56,18.9,72.4,1014.92,0,0,0,0,0.025253
2023/04/03 02:39:00.001,n,170,5.4,3.96,7.2,18.9,72.5,1014.92,0,0,0,0,0.029602
2023/04/03 02:40:00.003,n,151,5.04,2.16,8.64,18.8,72.2,1014.92,0,0,0,0,0.027885
2023/04/03 02:41:00.014,n,251,1.44,0.36,3.6,18.8,72.9,1014.92,0,0,0,0,0.027885
2023/04/03 02:42:00.011,n,248,4.32,3.96,4.68,18.8,72.8,1014.92,0,0,0,0,0.023537
2023/04/03 02:43:00.001,n,184,2.88,1.8,3.6,18.8,72.6,1014.82,0,0,0,0,0.023537
2023/04/03 02:44:00.001,n,285,3.24,1.8,3.96,18.8,72.6,1014.82,0,0,0,0,0.028763
2023/04/03 02:45:00.001,n,217,3.24,1.44,4.68,18.8,72.5,1014.82,0,0,0,0,0.025253
2023/04/03 02:46:00.002,n,181,3.24,2.52,4.32,18.8,72.8,1014.92,0,0,0,0,0.021782
2023/04/03 02:47:00.001,n,270,5.76,5.04,6.12,18.8,73.4,1014.92,0,0,0,0,0.023537
2023/04/03 02:48:00.017,n,211,3.6,2.16,4.68,18.8,73.2,1014.92,0,0,0,0,0.023537
2023/04/03 02:49:00.009,n,245,3.6,2.16,4.32,18.8,72.8,1014.92,0,0,0,0,0.025253
2023/04/03 02:50:00.005,n,226,3.6,2.16,4.68,18.8,73.4,1014.82,0,0,0,0,0.02697
2023/04/03 02:51:00.012,n,189,4.68,1.44,7.56,18.8,73.3,1014.82,0,0,0,0,0.026131
2023/04/03 02:52:00.002,n,277,6.48,5.76,7.2,18.8,72.7,1014.82,0,0,0,0,0.022659
2023/04/03 02:53:00.001,n,206,3.96,3.24,5.04,18.7,72.8,1014.82,0,0,0,0,0.02697
2023/04/03 02:54:00.001,n,274,5.04,4.68,5.76,18.8,73.8,1014.82,0,0,0,0,0.022659
2023/04/03 02:55:00.001,n,238,3.6,0.36,4.68,18.8,73.1,1014.92,0,0,0,0,0.025253
2023/04/03 02:56:00.001,n,243,3.96,1.8,6.48,18.8,73.4,1014.92,0,0,0,0,0.024376
2023/04/03 02:57:00.004,n,119,0.36,0.36,0.72,18.8,74,1014.92,0,0,0,0,0.022659
2023/04/03 02:58:00.016,n,95,1.08,0.72,1.08,18.8,73,1014.92,0,0,0,0,0.021782
2023/04/03 02:59:00.004,n,117,1.8,1.44,3.6,18.8,73.8,1014.92,0,0,0,0,0.020905
2023/04/03 03:00:00.005,n,282,1.44,0.36,2.52,18.7,73.2,1014.92,0,0,0,0,0.022659
2023/04/03 03:01:00.001,n,183,2.52,1.8,2.88,18.7,73,1014.92,0,0,0,0,0.023537
2023/04/03 03:02:00.001,n,257,3.6,2.52,4.68,18.7,73.1,1014.92,0,0,0,0,0.020905
2023/04/03 03:03:00.004,n,220,2.88,2.16,4.32,18.7,73.2,1014.92,0,0,0,0,0.020027
2023/04/03 03:04:00.005,n,262,3.96,3.24,4.68,18.7,73.4,1014.92,0,0,0,0,0.020027
2023/04/03 03:05:00.004,n,270,6.12,5.76,6.84,18.7,73.2,1014.92,0,0,0,0,0.020905
2023/04/03 03:06:00.014,n,202,1.8,0.36,5.4,18.7,73.1,1014.92,0,0,0,0,0.023537
2023/04/03 03:07:00.002,n,154,3.6,2.88,7.92,18.6,73.1,1014.92,0,0,0,0,0.020905
2023/04/03 03:08:00.007,n,187,2.52,1.44,4.32,18.6,73,1014.92,0,0,0,0,0.023537
2023/04/03 03:09:00.003,n,219,2.16,0.36,5.76,18.6,73.1,1014.92,0,0,0,0,0.022659
2023/04/03 03:10:00.001,n,145,3.24,2.52,3.6,18.6,73.2,1015.02,0,0,0,0,0.023537
2023/04/03 03:11:00.007,n,188,3.24,1.8,4.68,18.6,73.2,1015.02,0,0,0,0,0.020027
2023/04/03 03:12:00.013,n,178,6.84,3.96,9.36,18.7,73.4,1015.02,0,0,0,0,0.023537
2023/04/03 03:13:00.001,n,175,5.76,2.52,8.28,18.7,73,1015.02,0,0,0,0,0.020905
2023/04/03 03:14:00.007,n,220,7.92,6.12,9.72,18.6,72.9,1015.02,0,0,0,0,0.021782
2023/04/03 03:15:00.013,n,172,3.6,1.08,6.48,18.6,72.9,1015.02,0,0,0,0,0.023537
2023/04/03 03:16:00.001,n,207,3.6,2.88,4.68,18.6,73.2,1014.92,0,0,0,0,0.021782
2023/04/03 03:17:00.006,n,231,4.32,0,5.76,18.6,74.3,1014.92,0,0,0,0,0.020905
2023/04/03 03:18:00.007,n,149,3.6,2.16,5.04,18.7,73.8,1014.92,0,0,0,0,0.020905
2023/04/03 03:19:00.001,n,236,3.6,2.16,5.04,18.7,73.5,1014.92,0,0,0,0,0.024376
2023/04/03 03:20:00.001,n,183,4.68,3.24,8.28,18.7,73,1014.92,0,0,0,0,0.020905
2023/04/03 03:21:00.001,n,175,5.76,3.96,10.440002,18.6,72.7,1014.92,0,0,0,0,0.020027
2023/04/03 03:22:00.001,n,207,3.96,3.96,4.32,18.6,72.7,1014.92,0,0,0,0,0.020905
2023/04/03 03:23:00.002,n,113,2.88,2.16,3.96,18.6,73,1014.92,0,0,0,0,0.016556
2023/04/03 03:24:00.005,n,140,0.72,0,1.08,18.6,72.8,1014.92,0,0,0,0,0.017433
2023/04/03 03:25:00.006,n,135,3.24,1.44,7.2,18.6,73.4,1014.92,0,0,0,0,0.021782
2023/04/03 03:26:00.016,n,163,2.52,1.44,3.96,18.6,73,1014.92,0,0,0,0,0.021782
2023/04/03 03:27:00.018,n,314,2.52,1.8,7.92,18.6,73.3,1014.92,0,0,0,0,0.019188
2023/04/03 03:28:00.002,n,259,3.96,1.08,6.48,18.6,73.2,1014.92,0,0,0,0,0.018311
2023/04/03 03:29:00.001,n,120,5.04,1.8,6.12,18.6,73,1014.92,0,0,0,0,0.019188
2023/04/03 03:30:00.002,n,167,2.88,2.16,3.24,18.6,73.6,1014.92,0,0,0,0,0.016556
2023/04/03 03:31:00.002,n,272,3.6,2.16,4.68,18.6,73.4,1014.82,0,0,0,0,0.018311
2023/04/03 03:32:00.003,n,134,5.04,3.24,11.16,18.6,73.1,1014.82,0,0,0,0,0.016556
2023/04/03 03:33:00.002,n,276,4.32,3.6,5.76,18.6,74.2,1014.82,0,0,0,0,0.018311
2023/04/03 03:34:00.005,n,278,4.32,3.96,4.68,18.6,73.3,1014.82,0,0,0,0,0.029564
2023/04/03 03:35:00.008,n,311,2.52,0.72,3.6,18.6,74.2,1014.92,0,0,0,0,0.033073
2023/04/03 03:36:00.004,n,251,1.8,1.44,2.52,18.6,74.3,1014.92,0,0,0,0,0.031319
2023/04/03 03:37:00.002,n,277,5.04,3.24,6.12,18.6,73.8,1014.92,0,0,0,0,0.029564
2023/04/03 03:38:00.003,n,225,3.6,0.72,5.04,18.6,73.7,1014.92,0,0,0,0,0.032196
2023/04/03 03:39:00.002,n,240,3.24,1.44,5.04,18.6,73,1014.92,0,0,0,0,0.032196
2023/04/03 03:40:00.002,n,237,8.64,7.56,10.8,18.5,72.7,1014.92,0,0,0,0,0.030441
2023/04/03 03:41:00.009,n,271,5.4,4.68,6.12,18.5,73.1,1014.92,0,0,0,0,0.033913
2023/04/03 03:42:00.002,n,299,5.04,4.68,6.12,18.5,74.1,1014.82,0,0,0,0,0.03479
2023/04/03 03:43:00.001,n,260,6.12,5.76,6.84,18.6,73.8,1014.82,0,0,0,0,0.03479
2023/04/03 03:44:00.015,n,266,5.4,4.32,6.12,18.5,73.1,1014.82,0,0,0,0,0.029564
2023/04/03 03:45:00.005,n,271,5.76,4.68,6.48,18.5,73.1,1014.82,0,0,0,0,0.032196
2023/04/03 03:46:00.001,n,243,5.76,3.6,6.84,18.5,73,1014.92,0,0,0,0,0.032196
2023/04/03 03:47:00.002,n,241,6.84,6.12,7.56,18.5,72.6,1014.92,0,0,0,0,0.030441
2023/04/03 03:48:00.012,n,243,3.96,3.24,4.68,18.4,73.2,1014.92,0,0,0,0,0.031319
2023/04/03 03:49:00.007,n,260,6.84,6.48,7.56,18.4,72.6,1014.92,0,0,0,0,0.031319
2023/04/03 03:50:00.003,n,252,5.76,4.68,6.84,18.4,72.8,1014.92,0,0,0,0,0.029564
2023/04/03 03:51:00.001,n,281,3.96,3.24,5.04,18.4,73.1,1014.92,0,0,0,0,0.030441
2023/04/03 03:52:00.001,n,279,7.2,6.48,7.56,18.4,73.4,1014.92,0,0,0,0,0.031319
2023/04/03 03:53:00.001,n,281,5.04,3.6,6.48,18.4,73.1,1014.92,0,0,0,0,0.030441
2023/04/03 03:54:00.015,n,264,7.2,5.76,9,18.4,72.7,1014.92,0,0,0,0,0.028725
2023/04/03 03:55:00.003,n,280,2.88,2.16,3.6,18.4,72.8,1014.92,0,0,0,0,0.032196
2023/04/03 03:56:00.001,n,120,2.52,0.36,5.04,18.4,72.9,1014.92,0,0,0,0,0.028725
2023/04/03 03:57:00.001,n,12,2.88,1.44,4.68,18.4,73.4,1014.92,0,0,0,0,0.030441
2023/04/03 03:58:00.006,n,278,6.48,5.04,7.56,18.4,73.2,1014.92,0,0,0,0,0.029564
2023/04/03 03:59:00.002,n,266,7.56,6.12,8.64,18.4,72.8,1014.92,0,0,0,0,0.028725
2023/04/03 04:00:00.016,n,252,6.48,5.4,7.56,18.4,72.6,1014.92,0,0,0,0,0.026131
2023/04/03 04:01:00.013,n,276,7.2,6.12,8.64,18.4,72.6,1014.92,0,0,0,0,0.027847
2023/04/03 04:02:00.012,n,259,5.76,5.4,5.76,18.4,72.7,1014.92,0,0,0,0,0.027847
2023/04/03 04:03:00.012,n,284,7.56,6.48,8.64,18.4,73,1015.02,0,0,0,0,0.023499
2023/04/03 04:04:00.001,n,35,2.16,0.72,5.4,18.4,73,1015.02,0,0,0,0,0.023499
2023/04/03 04:05:00.004,n,165,3.6,1.44,6.48,18.4,73.1,1015.02,0,0,0,0,0.027847
2023/04/03 04:06:00.004,n,239,3.6,2.16,5.4,18.4,73.3,1015.02,0,0,0,0,0.027847
2023/04/03 04:07:00.020,n,274,7.56,6.48,8.28,18.4,73.7,1015.02,0,0,0,0,0.028725
2023/04/03 04:08:00.001,n,244,4.68,1.8,5.76,18.4,73,1015.02,0,0,0,0,0.026131
2023/04/03 04:09:00.004,n,221,3.96,1.8,5.4,18.4,73.5,1014.92,0,0,0,0,0.026131
2023/04/03 04:10:00.012,n,276,8.64,7.92,9,18.4,73.3,1014.92,0,0,0,0,0.028725
2023/04/03 04:11:00.009,n,273,7.56,5.76,9.36,18.4,73,1014.92,0,0,0,0,0.026131
2023/04/03 04:12:00.015,n,263,6.12,5.04,6.84,18.4,73,1014.92,0,0,0,0,0.024338
2023/04/03 04:13:00.001,n,261,6.48,4.68,7.92,18.3,72.8,1014.92,0,0,0,0,0.026131
2023/04/03 04:14:00.001,n,251,8.28,7.56,9.72,18.3,72.8,1014.92,0,0,0,0,0.022621
2023/04/03 04:15:00.004,n,219,3.6,1.8,4.68,18.3,72.9,1014.92,0,0,0,0,0.020905
2023/04/03 04:16:00.002,n,288,6.84,4.68,8.28,18.3,72.9,1014.82,0,0,0,0,0.023499
2023/04/03 04:17:00.011,n,259,9,7.56,9.72,18.3,72.9,1014.82,0,0,0,0,0.020905
2023/04/03 04:18:00.009,n,230,3.96,2.88,5.4,18.3,73.1,1014.82,0,0,0,0,0.025215
2023/04/03 04:19:00.011,n,287,5.04,3.96,5.76,18.3,73.5,1014.82,0,0,0,0,0.021744
2023/04/03 04:20:00.012,n,249,5.04,2.88,6.84,18.3,74,1014.82,0,0,0,0,0.021744
2023/04/03 04:21:00.015,n,267,6.12,5.76,6.84,18.3,73.6,1014.82,0,0,0,0,0.023499
2023/04/03 04:22:00.002,n,251,6.48,5.76,7.56,18.3,73.2,1014.82,0,0,0,0,0.025215
2023/04/03 04:23:00.001,n,195,4.32,1.08,8.64,18.3,73.2,1014.82,0,0,0,0,0.020905
2023/04/03 04:24:00.005,n,242,6.12,4.32,6.84,18.2,73.4,1014.82,0,0,0,0,0.022621
2023/04/03 04:25:00.001,n,277,5.4,5.04,6.12,18.2,73.7,1014.82,0,0,0,0,0.020905
2023/04/03 04:26:00.003,n,227,3.6,1.08,4.68,18.2,73.7,1014.72,0,0,0,0,0.025215
2023/04/03 04:27:00.015,n,270,6.48,5.04,7.56,18.3,75,1014.82,0,0,0,0,0.023499
2023/04/03 04:28:00.009,n,215,2.52,1.8,3.6,18.3,74.7,1014.72,0,0,0,0,0.016556
2023/04/03 04:29:00.007,n,259,5.04,1.44,6.12,18.3,74,1014.82,0,0,0,0,0.021744
2023/04/03 04:30:00.014,n,198,3.6,1.44,5.4,18.2,74.2,1014.82,0,0,0,0,0.017395
2023/04/03 04:31:00.001,n,292,2.16,0.72,5.04,18.2,74.3,1014.82,0,0,0,0,0.025215
2023/04/03 04:32:00.003,n,241,2.52,1.8,3.96,18.2,74.1,1014.82,0,0,0,0,0.020905
2023/04/03 04:33:00.001,n,276,6.84,6.48,7.2,18.2,74.4,1014.82,0,0,0,0,0.016556
2023/04/03 04:34:00.001,n,284,6.84,5.4,11.16,18.2,73.9,1014.92,0,0,0,0,0.020905
2023/04/03 04:35:00.001,n,284,1.8,1.44,2.88,18.2,73.8,1014.92,0,0,0,0,0.025215
2023/04/03 04:36:00.010,n,274,5.4,4.68,6.12,18.2,73.9,1014.92,0,0,0,0,0.027847
2023/04/03 04:37:00.014,n,265,6.48,2.88,7.92,18.2,74.2,1014.92,0,0,0,0,0.021782
2023/04/03 04:38:00.001,n,267,5.4,1.8,6.48,18.2,74,1014.92,0,0,0,0,0.024376
2023/04/03 04:39:00.004,n,190,2.88,1.08,4.68,18.2,74,1014.92,0,0,0,0,0.023499
2023/04/03 04:40:00.006,n,268,6.48,5.76,7.56,18.2,74.2,1014.92,0,0,0,0,0.025215
2023/04/03 04:41:00.001,n,199,2.52,1.44,3.24,18.2,75.8,1014.92,0,0,0,0,0.02697
2023/04/03 04:42:00.001,n,274,6.12,4.68,6.84,18.3,75.3,1014.92,0,0,0,0,0.020905
2023/04/03 04:43:00.001,n,246,2.52,1.8,4.68,18.3,75.6,1014.92,0,0,0,0,0.022621
2023/04/03 04:44:00.001,n,279,5.4,4.68,6.12,18.3,75.4,1014.92,0,0,0,0,0.025215
2023/04/03 04:45:00.002,n,249,9.36,5.4,11.16,18.3,74.2,1014.92,0,0,0,0,0.020905
2023/04/03 04:46:00.002,n,215,3.6,2.16,4.32,18.2,74.1,1014.92,0,0,0,0,0.017395
2023/04/03 04:47:00.004,n,259,6.84,5.76,7.92,18.2,74.5,1014.92,0,0,0,0,0.012207
2023/04/03 04:48:00.006,n,280,6.48,6.12,6.84,18.2,74.3,1014.92,0,0,0,0,0.02697
2023/04/03 04:49:00.002,n,259,5.4,2.16,6.12,18.2,74,1014.92,0,0,0,0,0.027847
2023/04/03 04:50:00.001,n,268,9,6.48,11.52,18.2,73.6,1014.92,0,0,0,0,0.024376
2023/04/03 04:51:00.001,n,281,6.84,5.4,7.92,18.1,73.9,1014.92,0,0,0,0,0.023499
2023/04/03 04:52:00.003,n,272,10.8,10.440002,11.16,18.1,73.7,1014.92,0,0,0,0,0.024376
2023/04/03 04:53:00.006,n,258,6.84,6.12,7.2,18.1,73.6,1014.92,0,0,0,0,0.018272
2023/04/03 04:54:00.008,n,190,2.52,1.44,4.32,18.1,73.8,1014.92,0,0,0,0,0.017395
2023/04/03 04:55:00.011,n,277,3.96,3.24,5.04,18.1,74.8,1014.92,0,0,0,0,0.021744